Regional Weather Roundup
Issued by NWS

Home | Current Version | Previous Version | Text Only | Print | Product List | Glossary On
Versions: 1 2 3 4 5 6 7 8 9 10 11 12 13 14 15 16 17 18 19 20 21 22 23 24 25 26 27 28 29 30 31 32 33 34 35 36 37 38 39 40 41 42 43 44 45 46 47 48 49 50
555
ASUS44 KLIX 280412
RWRLA
LOUISIANA WEATHER ROUNDUP
NATIONAL WEATHER SERVICE NEW ORLEANS LA
1100 PM CDT FRI MAY 27 2016

NOTE: "FAIR" INDICATES FEW OR NO CLOUDS BELOW 12,000 FEET WITH NO
      SIGNIFICANT WEATHER AND/OR OBSTRUCTIONS TO VISIBILITY.
      SKY/WX - SKY CONDITION AND SIGNIFICANT WEATHER.
      TMP - AIR TEMPERATURE.    DP   - DEWPOINT TEMPERATURE.
      RH  - RELATIVE HUMIDITY.  PRES - PRESSURE.
      HX  - HEAT INDEX.         WCI  - WIND CHILL INDEX.

*  THESE STATIONS ARE NOT NWS OR FAA STATIONS AND ARE NOT UNDER
   NWS QUALITY CONTROL.

LAZ040-048-061>063-065-066-069-280500-
SOUTHEAST LOUISIANA

CITY           SKY/WX    TMP DP  RH WIND       PRES   REMARKS
N.O. AUDUBON   NOT AVBL
N.O. INTL ARPT CLOUDY    78  70  76 SE8       29.99R
N.O. LAKEFRONT CLOUDY    79  70  74 SE7       30.00R
N.O. DOWNTOWN* FAIR      80  70  71 VRB5      30.00R
RESERVE*       MOCLDY    78  71  80 SE5       29.99S
SLIDELL        CLOUDY    76  72  87 CALM      30.00R
BATON ROUGE    PTCLDY    75  66  73 CALM      29.99R
BOOTHVILLE     CLOUDY    76  71  85 CALM      30.00R
BELLE CHASSE   CLOUDY    78  71  79 SE6       29.99R
BOGALUSA*      FAIR      74  69  84 CALM      30.02R
GALLIANO*      CLOUDY    78  70  77 SE3       29.98R
NEW ROADS*     CLOUDY    68  65  90 N6        30.00F
GONZALES*      FAIR      74  69  84 CALM      29.98S
HAMMOND*       CLOUDY    77  66  69 E6        29.99F
HOUMA*         CLOUDY    76  71  84 CALM      29.99R
PORT FOURCHON* MOCLDY    79  72  78 SE8       29.97S

$$

LAZ041-044-053-054-280500-
SOUTHWEST LOUISIANA

CITY           SKY/WX    TMP DP  RH WIND       PRES   REMARKS
LAKE CHARLES   RAIN      67  65  93 SE16      29.94F
LAFAYETTE      LGT RAIN  68  65  90 N9        29.97F
PATTERSON      CLOUDY    68  66  93 W6        29.99F
SALT POINT       N/A     69  66  90 VRB3      29.99F
NEW IBERIA     CLOUDY    67  64  90 N8        29.99F
CHENAULT AIRPK NOT AVBL

$$

LAZ027-028-280500-
CENTRAL LOUISIANA

CITY           SKY/WX    TMP DP  RH WIND       PRES   REMARKS
FORT POLK      CLOUDY    66  64  94 SE10      29.86R
ALEXANDRIA INT LGT RAIN  67  64  90 SE22G33   29.82F
ALEXANDRIA     LGT RAIN  67  64  90 SE18G26   29.89F

$$

LAZ001-002-280500-
NORTHWEST LOUISIANA

CITY           SKY/WX    TMP DP  RH WIND       PRES   REMARKS
SHREVEPORT     CLOUDY    68  65  90 SW6       29.85R
BARKSDALE AFB  MOCLDY    67  66  97 SW5       29.87R
DTN SHREVEPORT CLOUDY    68  64  87 SW5       29.86R

$$

LAZ014-016-280500-
NORTHEAST LOUISIANA

CITY           SKY/WX    TMP DP  RH WIND       PRES   REMARKS
MONROE         LGT RAIN  68  66  93 SE14G28   29.83F
TALLULAH       CLOUDY    70  68  93 S10       29.97S

$$





USA.gov is the U.S. government's official web portal to all federal, state and local government web resources and services.